Location: Unspecified
(0.0000°N, 0.0000°E)
Time: 22:11:33
(UTC+00:00)

ARIANE 6 FM1 Upper Stage - Pass Details

Date: 06 December 2025
Orbit: 522 x 611 km, 62.0° (Epoch: 08 December)

Event Time Altitude Azimuth Distance (km) Brightness Sun altitude
Rises 18:16:26 0° 353° (N) 2,691 6.0 -5.8°
Reaches altitude 10° 18:18:49 10° 5° (N) 1,817 5.0 -6.4°
Maximum altitude 18:22:23 29° 66° (ENE) 1,050 3.5 -7.2°
Drops below altitude 10° 18:26:03 10° 126° (SE) 1,874 5.0 -8.0°
Sets 18:28:32 0° 137° (SE) 2,791 6.0 -8.6°
